{"data":{"norad_id":40966,"intl_designator":"2015-058C","name":"AEROCUBE 7","alt_names":[],"object_type":"PAYLOAD","status":"ACTIVE","operator":null,"country":"US","launch_date":"2015-10-08","launch_site_code":"AFWTR","launch_vehicle":null,"mission":null,"orbit_class":"UNKNOWN","rcs_meters":null,"size_class":null,"mass_kg":null,"dimensions":null,"purposes":["tech_demo"],"wikipedia_slug":null,"has_3d_model":false,"image_url":null,"decayed_at":null,"tle_current":{"epoch":"2026-05-24T19:56:57.630048Z","epoch_age_seconds":86140,"freshness":"FRESH","line1":"1 40966U 15058C   26144.83122257  .00003913  00000+0  31883-3 0  9992","line2":"2 40966  64.7631 317.9620 0119825  71.0717 290.3341 14.95524882362462","mean_motion":14.95524882,"eccentricity":0.0119825,"inclination_deg":64.7631,"raan_deg":317.962,"arg_perigee_deg":71.0717,"mean_anomaly_deg":290.3341,"bstar":0.00031883,"rev_number":36246,"period_min":96.287264580597,"perigee_km":497.3592509744,"apogee_km":664.12883517164,"semimajor_km":6958.881043073,"source":"CELESTRAK","updated_at":"2026-05-25T13:38:25.525299Z"}}}